GORIZONT 25 [-]

Last updated on Jan. 23, 2021, 7:21 a.m. UTC

1 21922U 92017A   21022.64269524 -.00000061  00000-0  00000-0 0  9998
2 21922  14.7824 357.8643 0029163  59.1899 113.9970  0.99858946105253
UTC
Height (km)
Latitude
Longitude
Inclination
Orbital Period
UTC large
Height (km)
Speed (km/s)
/
Latitude / Longitude
Inclination (degrees)
Orbital Period (minutes)
Azimuth
Elevation
Range (km)
Doppler Factor
iOS Compass Heading
iOS Angle

Next 30 passes for location: Hong Kong

Rise time Rise Azimuth (degrees) Set time Set Azimuth (degrees) Duration Max altitude (degrees)

No matching passes for this satellites